DW7229 Weather Reports


Display with metric or nautical units.
time (UTC)temp
F
wind
direction
speed
MPH
gust
MPH
rain 1hr
in
rain 24hr
in
rain mn
in
humidity
%
barometer
mb
20260906193022 77 0.0 0.0 0.00 0.00 0.00 41 1013.3
20260906192025 76 293 0.0 4.0 0.00 0.00 0.00 45 1013.3
20260906191028 76 0.0 0.0 0.00 0.00 0.00 44 1013.5
20260906190052 75 124 0.0 3.0 0.00 0.00 0.00 49 1013.6
20260906185017 73 85 0.0 3.0 0.00 0.00 0.00 53 1013.8
20260906184020 70 0.0 0.0 0.00 0.00 0.00 60 1013.9
20260906183024 71 0.0 0.0 0.00 0.00 0.00 59 1013.9
20260906182027 73 0.0 0.0 0.00 0.00 0.00 55 1013.8
20260906181030 74 0.0 0.0 0.00 0.00 0.00 57 1014.0
20260906180016 70 0.0 0.0 0.00 0.00 0.00 63 1014.0
20260906175019 69 0.0 0.0 0.00 0.00 0.00 66 1014.2
20260906174022 69 0.0 0.0 0.00 0.00 0.00 65 1014.2
20260906173106 71 248 0.0 1.0 0.00 0.00 0.00 62 1014.3
20260906172023 72 0.0 0.0 0.00 0.00 0.00 61 1014.4
20260906171020 71 270 0.0 2.0 0.00 0.00 0.00 62 1014.5
20260906170017 69 0.0 0.0 0.00 0.00 0.00 69 1014.7
20260906165020 69 0.0 0.0 0.00 0.00 0.00 68 1014.7
20260906164024 67 0.0 0.0 0.00 0.00 0.00 73 1014.9
20260906163027 66 0.0 0.0 0.00 0.00 0.00 74 1015.0
20260906162030 64 0.0 0.0 0.00 0.00 0.00 79 1015.1
20260906161016 64 0.0 0.0 0.00 0.00 0.00 77 1015.1
20260906160019 66 0.0 0.0 0.00 0.00 0.00 70 1015.1
20260906155022 66 0.0 0.0 0.00 0.00 0.00 69 1015.2
20260906154025 65 0.0 0.0 0.00 0.00 0.00 72 1015.3
20260906153029 65 0.0 0.0 0.00 0.00 0.00 73 1015.3
20260906152112 65 0.0 0.0 0.00 0.00 0.00 72 1015.3
20260906151017 65 0.0 0.0 0.00 0.00 0.00 74 1015.5
20260906150021 65 0.0 0.0 0.00 0.00 0.00 74 1015.5
20260906145024 65 0.0 0.0 0.00 0.00 0.00 73 1015.4
20260906144027 64 0.0 0.0 0.00 0.00 0.00 74 1015.5
20260906143031 64 270 0.0 1.0 0.00 0.00 0.00 75 1015.5
20260906142016 63 0.0 0.0 0.00 0.00 0.00 76 1015.5
20260906141059 62 180 0.0 1.0 0.00 0.00 0.00 77 1015.7
20260906140023 62 0.0 0.0 0.00 0.00 0.00 79 1015.6
20260906135026 62 0.0 0.0 0.00 0.00 0.00 81 1015.5
20260906134023 61 0.0 0.0 0.00 0.00 0.00 81 1015.5
20260906133020 61 0.0 0.0 0.00 0.00 0.00 81 1015.5
20260906132038 60 0.0 0.0 0.00 0.00 0.00 85 1015.5
20260906131015 60 0.0 0.0 0.00 0.00 0.00 87 1015.4
20260906130024 59 0.0 0.0 0.00 0.00 0.00 87 1015.4
20260906125048 59 0.0 0.0 0.00 0.00 0.00 87 1015.4
20260906124031 59 0.0 0.0 0.00 0.00 0.00 89 1015.4
20260906123016 59 0.0 0.0 0.00 0.00 0.00 92 1015.3
20260906122039 59 0.0 0.0 0.00 0.00 0.00 92 1015.3
20260906121023 59 0.0 0.0 0.00 0.00 0.00 92 1015.3
20260906120026 58 0.0 0.0 0.00 0.00 0.00 92 1015.2
20260906115029 58 0.0 0.0 0.00 0.00 0.00 92 1014.7
20260906114032 58 0.0 0.0 0.00 0.00 0.00 92 1014.7
20260906113018 57 0.0 0.0 0.00 0.00 0.00 92 1014.7
20260906112041 57 0.0 0.0 0.00 0.00 0.00 92 1014.6
20260906111024 57 0.0 0.0 0.00 0.00 0.00 92 1014.5
20260906110028 57 0.0 0.0 0.00 0.00 0.00 92 1014.5
20260906105031 57 0.0 0.0 0.00 0.00 0.00 92 1014.3
20260906104016 57 0.0 0.0 0.00 0.00 0.00 92 1014.2
20260906103040 57 0.0 0.0 0.00 0.00 0.00 92 1014.1
20260906102043 57 0.0 0.0 0.00 0.00 0.00 92 1013.9
20260906101026 57 0.0 0.0 0.00 0.00 0.00 92 1014.0
20260906100023 57 0.0 0.0 0.00 0.00 0.00 92 1014.0
20260906095015 57 0.0 0.0 0.00 0.00 0.00 92 1013.8
20260906094018 57 0.0 0.0 0.00 0.00 0.00 92 1013.7
20260906093035 57 0.0 0.0 0.00 0.00 0.00 92 1013.7
20260906092045 57 0.0 0.0 0.00 0.00 0.00 92 1013.8
20260906091028 58 0.0 0.0 0.00 0.00 0.00 92 1013.7
20260906090031 58 0.0 0.0 0.00 0.00 0.00 92 1013.8
20260906085017 58 0.0 0.0 0.00 0.00 0.00 92 1013.7
20260906084020 58 0.0 0.0 0.00 0.00 0.00 92 1013.6
20260906083023 58 0.0 0.0 0.00 0.00 0.00 92 1013.7
20260906082026 59 0.0 0.0 0.00 0.00 0.00 92 1013.7
20260906081030 59 0.0 0.0 0.00 0.00 0.00 92 1013.8
20260906080015 59 0.0 0.0 0.00 0.00 0.00 92 1013.4
20260906075038 59 0.0 0.0 0.00 0.00 0.00 92 1013.3
20260906074021 59 0.0 0.0 0.00 0.00 0.00 92 1013.3
20260906073045 59 0.0 0.0 0.00 0.00 0.00 92 1013.2
20260906072029 59 0.0 0.0 0.00 0.00 0.00 92 1013.2
20260906071032 60 0.0 0.0 0.00 0.00 0.00 92 1013.3
20260906070037 60 0.0 0.0 0.00 0.00 0.00 92 1013.2
20260906065020 60 0.0 0.0 0.00 0.00 0.00 92 1013.0
20260906064044 60 0.0 0.0 0.00 0.00 0.00 92 1013.0
20260906063027 60 0.0 0.0 0.00 0.00 0.00 92 1013.0
20260906062024 61 0.0 0.0 0.00 0.00 0.00 92 1013.1
20260906061057 61 0.0 0.0 0.00 0.00 0.00 92 1013.1
20260906060019 61 0.0 0.0 0.00 0.00 0.00 92 1012.8
20260906055036 61 0.0 0.0 0.00 0.00 0.00 92 1012.8
20260906054046 61 0.0 0.0 0.00 0.00 0.00 92 1012.9
20260906053029 61 0.0 0.0 0.00 0.00 0.00 92 1013.0
20260906052032 61 0.0 0.0 0.00 0.00 0.00 92 1013.1
20260906051017 61 0.0 0.0 0.00 0.00 0.00 92 1013.0
20260906050021 61 0.0 0.0 0.00 0.00 0.00 92 1013.1
20260906045044 61 0.0 0.0 0.00 0.00 0.00 92 1012.9
20260906044028 61 0.0 0.0 0.00 0.00 0.00 92 1012.9
20260906043030 61 0.0 0.0 0.00 0.00 0.00 91 1012.9
20260906042036 61 0.0 0.0 0.00 0.00 0.00 91 1012.9
20260906041019 62 0.0 0.0 0.00 0.00 0.00 91 1012.9
20260906040022 62 0.0 0.0 0.00 0.00 0.00 91 1012.9
20260906035026 61 0.0 0.0 0.00 0.00 0.00 89 1012.9
20260906034029 61 0.0 0.0 0.00 0.00 0.00 89 1012.9
20260906033032 61 0.0 0.0 0.00 0.00 0.00 88 1012.8
20260906032017 62 0.0 0.0 0.00 0.00 0.00 88 1012.7
20260906031021 62 0.0 0.0 0.00 0.00 0.00 88 1012.7
20260906030024 62 0.0 0.0 0.00 0.00 0.00 88 1012.8
20260906025027 62 0.0 0.0 0.00 0.00 0.00 88 1012.7
20260906024025 62 0.0 0.0 0.00 0.00 0.00 87 1012.8
20260906023016 62 0.0 0.0 0.00 0.00 0.00 87 1012.7
20260906022019 62 0.0 0.0 0.00 0.00 0.00 86 1012.6
20260906021036 62 0.0 0.0 0.00 0.00 0.00 86 1012.7
20260906020046 62 0.0 0.0 0.00 0.00 0.00 86 1012.8
20260906015029 62 0.0 0.0 0.00 0.00 0.00 85 1012.9
20260906014032 62 0.0 0.0 0.00 0.00 0.00 84 1012.8
20260906013038 62 0.0 0.0 0.00 0.00 0.00 84 1012.8
20260906012021 63 0.0 0.0 0.00 0.00 0.00 84 1012.8
20260906011044 63 0.0 0.0 0.00 0.00 0.00 84 1012.6
20260906010047 63 0.0 0.0 0.00 0.00 0.00 84 1012.5
20260906005031 63 0.0 0.0 0.00 0.00 0.00 84 1012.4
20260906004016 63 0.0 0.0 0.00 0.00 0.00 83 1012.4
20260906003019 63 0.0 0.0 0.00 0.00 0.00 82 1012.4
20260906002022 63 0.0 0.0 0.00 0.00 0.00 82 1012.3
20260906001046 63 0.0 0.0 0.00 0.00 0.00 82 1012.3
20260906000049 64 0.0 0.0 0.00 0.00 0.00 82 1012.3
20260905235032 64 0.0 0.0 0.00 0.00 0.00 81 1012.3
20260905234018 64 0.0 0.0 0.00 0.00 0.00 81 1012.2
20260905233041 64 0.0 0.0 0.00 0.00 0.00 80 1012.2
20260905232025 64 0.0 0.0 0.00 0.00 0.00 80 1012.1
20260905231027 65 0.0 0.0 0.00 0.00 0.00 80 1012.1
20260905230025 65 0.0 0.0 0.00 0.00 0.00 80 1011.8
20260905225016 65 0.0 0.0 0.00 0.00 0.00 79 1011.9
20260905224059 66 0.0 0.0 0.00 0.00 0.00 78 1011.8
20260905223016 66 0.0 0.0 0.00 0.00 0.00 78 1011.7
20260905222026 67 0.0 0.0 0.00 0.00 0.00 77 1011.7
20260905221049 68 0.0 0.0 0.00 0.00 0.00 76 1011.6
20260905220032 68 0.0 0.0 0.00 0.00 0.00 77 1011.4
20260905215018 67 0.0 0.0 0.00 0.00 0.00 80 1011.1
20260905214021 66 0.0 0.0 0.00 0.00 0.00 81 1011.1
20260905213024 66 0.0 0.0 0.00 0.00 0.00 82 1011.1
20260905212028 65 0.0 0.0 0.00 0.00 0.00 83 1011.1
20260905211031 65 0.0 0.0 0.00 0.00 0.00 82 1011.0
20260905210016 65 0.0 0.0 0.00 0.00 0.00 81 1011.1
20260905205019 66 0.0 0.0 0.00 0.00 0.00 79 1011.0
20260905204022 66 0.0 0.0 0.00 0.00 0.00 79 1011.1
20260905203026 66 0.0 0.0 0.00 0.00 0.00 78 1011.0
20260905202029 66 0.0 0.0 0.00 0.00 0.00 78 1011.0
20260905201032 66 0.0 0.0 0.00 0.00 0.00 77 1011.0
20260905200018 67 0.0 0.0 0.00 0.00 0.00 76 1011.1
20260905195021 68 0.0 0.0 0.00 0.00 0.00 71 1010.8
20260905194024 71 0.0 0.0 0.00 0.00 0.00 66 1010.6